299P/Catalina-PanSTARRS (2024)

Japanese version
Home page
Updated on December 18, 2022

---------------------------------------------------------------------

* Profile

* Orbital Elements

Epoch 2022 Aug. 9.0 TT = JDT 2459800.5
T 2024 Apr. 30.97255 TT                                 Rudenko
q   3.1545507            (2000.0)            P               Q
n   0.10725062     Peri.  323.80316     -0.55779243     +0.80986309
a   4.3873558      Node   271.61247     -0.71241726     -0.57945412
e   0.2809905      Incl.   10.46890     -0.42582773     -0.09140406
P   9.19
>From 303 observations 2005 Mar. 11-2022 Oct. 30, mean residual 0".7.

* Magnitudes Graph

        m1 = 7.5 + 5 log d + 15.0 log r

---------------------------------------------------------------------

The orbital elements are published on M.P.E.C. 2022-V95.
The magnitudes graphs are made with Comet for Windows.

---------------------------------------------------------------------

Copyright(C) Seiichi Yoshida (comet@aerith.net). All rights reserved.